Location: Unspecified
(0.0000°N, 0.0000°E)
Time: 12:34:38
(UTC+00:00)

Pageos Rocket - Visible Passes

Search period start: 20 July 2025 00:00
Search period end: 30 July 2025 00:00
Orbit: 4177 x 4279 km, 87.0° (Epoch: 19 July)

Date Brightness Start Highest point End Pass type
(mag) Time Alt. Az. Time Alt. Az. Time Alt. Az.
20 Jul 8.9 03:05:06 10° E 03:08:40 11° E 03:12:13 10° ESE visible
20 Jul 8.4 19:24:52 10° SSW 19:42:36 33° W 20:00:44 10° NW visible
21 Jul 8.8 03:08:07 10° ENE 03:18:21 15° E 03:28:21 10° SE visible
21 Jul 8.5 19:36:00 10° SSW 19:52:21 28° W 20:09:06 10° NW visible
22 Jul 8.7 03:14:29 10° NE 03:28:03 19° E 03:41:17 10° SE visible
22 Jul 8.7 19:47:32 10° SW 20:02:05 23° W 20:17:01 10° NW visible
23 Jul 8.6 03:21:55 10° NE 03:37:47 24° E 03:53:14 10° SE visible
23 Jul 8.8 19:59:39 10° SW 20:11:49 18° W 20:24:16 10° WNW visible
24 Jul 8.4 03:29:56 10° NE 03:47:31 29° E 04:04:40 10° SSE visible
24 Jul 8.9 20:12:59 10° WSW 20:21:31 13° W 20:30:13 10° WNW visible
25 Jul 8.2 03:38:22 10° NE 03:57:16 35° E 04:15:43 10° SSE visible
26 Jul 8.1 03:47:07 10° NNE 04:07:02 41° E 04:26:33 10° SSE visible
27 Jul 7.9 03:56:05 10° NNE 04:16:48 48° E 04:37:09 10° SSE visible
28 Jul 7.7 04:05:16 10° NNE 04:26:34 55° E 04:47:35 10° SSE visible
29 Jul 7.6 04:14:36 10° NNE 04:36:21 62° E 04:57:52 10° S visible
29 Jul 7.9 17:50:21 10° S 18:11:09 59° W 18:32:11 10° NNW visible
